EJU24VC LFBD-EDDB

Flight info

Callsign EJU24VC
Flight time N/A
Altitude 34000
Route CNA DCT ADABI DCT BOKNO DCT DIBES DCT VIQAQ DCT TSU DCT OQQAL DCT RANUX DCT VALEK DCT LIPNI UN858 LIMGO DCT MASEK T278 KLF KLF1R
Aircraft A319/M-SDE2E3FGIJ1RWXYZ/LB1

Departure

Time N/A
Airport Bordeaux–Mérignac Airport (LFBD)

Arrival

Time 2026-05-07 19:39
Airport Berlin Brandenburg Airport (EDDB)
Time Latitude Longitude Altitude Speed Heading
2026-05-07 19:19 51.19486 11.89753 34608 ft 475 kts 62°
2026-05-07 19:20 51.21138 11.94236 33746 ft 477 kts 53°
2026-05-07 19:20 51.23298 11.98363 33150 ft 468 kts 46°
2026-05-07 19:20 51.25516 12.02128 32618 ft 465 kts 46°
2026-05-07 19:20 51.27733 12.05879 32087 ft 463 kts 46°
2026-05-07 19:21 51.29916 12.09567 31572 ft 462 kts 45°
2026-05-07 19:21 51.32119 12.13287 31050 ft 460 kts 45°
2026-05-07 19:21 51.34341 12.17033 30543 ft 459 kts 45°
2026-05-07 19:21 51.36511 12.20689 30019 ft 457 kts 45°
2026-05-07 19:22 51.38696 12.24375 29506 ft 457 kts 45°
2026-05-07 19:22 51.40884 12.28077 29019 ft 458 kts 45°
2026-05-07 19:22 51.43072 12.31787 28546 ft 459 kts 46°
2026-05-07 19:22 51.45266 12.35519 28067 ft 460 kts 46°
2026-05-07 19:23 51.47459 12.39261 27554 ft 461 kts 46°
2026-05-07 19:23 51.49651 12.43007 27020 ft 463 kts 46°
2026-05-07 19:23 51.51143 12.45559 26669 ft 462 kts 46°
2026-05-07 19:23 51.54042 12.50531 25988 ft 458 kts 45°
2026-05-07 19:24 51.55510 12.53047 25649 ft 456 kts 45°
2026-05-07 19:24 51.57672 12.56756 25152 ft 453 kts 45°
2026-05-07 19:24 51.59819 12.60444 24669 ft 450 kts 45°
2026-05-07 19:24 51.61935 12.64089 24178 ft 440 kts 45°
2026-05-07 19:25 51.63977 12.67614 23691 ft 420 kts 45°
2026-05-07 19:25 51.65922 12.70974 23139 ft 401 kts 45°
2026-05-07 19:25 51.67789 12.74197 22594 ft 386 kts 45°
2026-05-07 19:25 51.69596 12.77315 22054 ft 374 kts 45°
2026-05-07 19:26 51.71345 12.80340 21543 ft 365 kts 46°
2026-05-07 19:26 51.73139 12.83199 20811 ft 362 kts 36°
2026-05-07 19:26 51.75337 12.85105 20023 ft 357 kts 19°
2026-05-07 19:26 51.77666 12.86388 19413 ft 349 kts 18°
2026-05-07 19:27 51.79945 12.87668 18733 ft 345 kts 19°
2026-05-07 19:27 51.82203 12.88953 17962 ft 346 kts 19°
2026-05-07 19:27 51.84491 12.90261 16876 ft 351 kts 19°
2026-05-07 19:27 51.86805 12.91584 15843 ft 354 kts 19°
2026-05-07 19:28 51.89144 12.92890 14839 ft 356 kts 16°
2026-05-07 19:28 51.91601 12.93333 13861 ft 358 kts 358°
2026-05-07 19:28 51.94085 12.93031 12806 ft 358 kts 355°
2026-05-07 19:28 51.96496 12.92675 12488 ft 338 kts 355°
2026-05-07 19:29 51.98781 12.92328 12091 ft 322 kts 355°
2026-05-07 19:29 52.00966 12.91991 11708 ft 309 kts 355°
2026-05-07 19:29 52.03069 12.91662 11303 ft 298 kts 355°
2026-05-07 19:29 52.05109 12.91337 10833 ft 292 kts 355°
2026-05-07 19:30 52.07131 12.91010 10377 ft 292 kts 355°
2026-05-07 19:30 52.09158 12.90681 9905 ft 294 kts 355°
2026-05-07 19:30 52.11196 12.90348 9400 ft 295 kts 355°
2026-05-07 19:30 52.13244 12.90008 8892 ft 295 kts 355°
2026-05-07 19:31 52.15255 12.89655 8389 ft 286 kts 354°
2026-05-07 19:31 52.17191 12.89740 7897 ft 274 kts 16°
2026-05-07 19:31 52.18944 12.90808 7424 ft 266 kts 24°
2026-05-07 19:31 52.20535 12.92225 6946 ft 257 kts 39°
2026-05-07 19:32 52.21738 12.94306 6480 ft 250 kts 57°
2026-05-07 19:32 52.22480 12.96804 6096 ft 239 kts 69°
2026-05-07 19:32 52.23076 12.99251 5819 ft 226 kts 68°
2026-05-07 19:32 52.23637 13.01541 5657 ft 209 kts 68°
2026-05-07 19:33 52.24159 13.03687 5510 ft 200 kts 68°
2026-05-07 19:33 52.24665 13.05770 5355 ft 197 kts 68°
2026-05-07 19:33 52.25169 13.07846 5204 ft 196 kts 68°
2026-05-07 19:33 52.25670 13.09914 5016 ft 196 kts 68°
2026-05-07 19:34 52.26170 13.11978 4766 ft 195 kts 68°
2026-05-07 19:34 52.26668 13.14036 4499 ft 195 kts 68°
2026-05-07 19:34 52.27165 13.16093 4233 ft 195 kts 68°
2026-05-07 19:34 52.27662 13.18149 3961 ft 195 kts 68°
2026-05-07 19:35 52.28158 13.20205 3695 ft 195 kts 68°
2026-05-07 19:35 52.28648 13.22240 3475 ft 188 kts 68°
2026-05-07 19:35 52.29118 13.24190 3177 ft 180 kts 68°
2026-05-07 19:35 52.29565 13.26047 2934 ft 172 kts 68°
2026-05-07 19:36 52.29995 13.27836 2704 ft 167 kts 68°
2026-05-07 19:36 52.30415 13.29587 2477 ft 165 kts 68°
2026-05-07 19:36 52.30835 13.31333 2244 ft 164 kts 68°
2026-05-07 19:36 52.31250 13.33067 2025 ft 164 kts 68°
2026-05-07 19:37 52.31665 13.34798 1797 ft 164 kts 68°
2026-05-07 19:37 52.32079 13.36527 1568 ft 163 kts 68°
2026-05-07 19:37 52.32478 13.38194 1351 ft 148 kts 68°
2026-05-07 19:37 52.32832 13.39678 1103 ft 134 kts 68°
2026-05-07 19:38 52.33170 13.41066 868 ft 130 kts 66°
2026-05-07 19:38 52.33517 13.42429 732 ft 130 kts 68°
2026-05-07 19:38 52.33822 13.43821 636 ft 131 kts 69°
2026-05-07 19:38 52.34156 13.45202 420 ft 131 kts 67°
2026-05-07 19:39 52.34491 13.46592 226 ft 130 kts 69°
2026-05-07 19:39 52.34808 13.47926 160 ft 113 kts 69°
2026-05-07 19:39 52.35032 13.48903 157 ft 73 kts 68°
2026-05-07 19:39 52.35175 13.49498 159 ft 38 kts 69°
2026-05-07 19:40 52.35257 13.49788 157 ft 25 kts 53°
2026-05-07 19:40 52.35365 13.49982 153 ft 19 kts 38°
2026-05-07 19:40 52.35466 13.50114 150 ft 17 kts 39°
2026-05-07 19:40 52.35566 13.50244 149 ft 18 kts 38°
2026-05-07 19:41 52.35623 13.50396 148 ft 15 kts 69°
2026-05-07 19:41 52.35663 13.50564 148 ft 15 kts 68°
2026-05-07 19:41 52.35682 13.50642 148 ft 6 kts 68°
2026-05-07 19:41 52.35717 13.50693 147 ft 8 kts 14°
2026-05-07 19:42 52.35778 13.50663 148 ft 10 kts 339°
2026-05-07 19:42 52.35840 13.50630 149 ft 9 kts 355°
2026-05-07 19:42 52.35886 13.50695 151 ft 10 kts 66°
2026-05-07 19:42 52.35912 13.50802 154 ft 10 kts 69°
2026-05-07 19:43 52.35942 13.50928 156 ft 12 kts 69°
2026-05-07 19:43 52.35976 13.51069 155 ft 15 kts 68°
2026-05-07 19:43 52.36008 13.51201 155 ft 8 kts 68°
2026-05-07 19:43 52.36044 13.51209 155 ft 7 kts 340°
2026-05-07 19:44 52.36085 13.51184 155 ft 5 kts 339°
2026-05-07 19:44 52.36097 13.51176 155 ft 0 kts 339°